DW2257 Weather Reports


time (UTC)temp
F
wind
direction
speed
knots
gust
knots
rain 1hr
in
rain 24hr
in
rain mn
in
humidity
%
barometer
mb
20260507211651 66 194 3.5 15.6 0.00 0.01 0.01 30 1003.3
20260507210207 65 267 2.6 13.0 0.00 0.01 0.01 30 1003.3
20260507204651 65 250 7.8 12.2 0.00 0.01 0.01 30 1003.3
20260507203149 66 280 6.1 10.4 0.00 0.01 0.01 29 1003.4
20260507201648 66 326 5.2 13.0 0.01 0.01 0.01 29 1003.4
20260507200147 66 323 3.5 12.2 0.01 0.01 0.01 28 1003.4
20260507194642 66 343 3.5 13.9 0.01 0.01 0.01 30 1003.6
20260507193136 66 277 7.0 13.0 0.01 0.01 0.01 29 1003.6
20260507191649 66 278 3.5 11.3 0.00 0.00 0.00 31 1003.7
20260507190147 66 286 3.5 10.4 0.00 0.00 0.00 31 1003.8
20260507184640 66 315 6.1 12.2 0.00 0.00 0.00 30 1004.0
20260507183158 65 253 6.1 13.9 0.00 0.00 0.00 32 1004.2
20260507181713 65 254 4.3 14.8 0.00 0.00 0.00 34 1004.4
20260507180149 65 251 6.1 12.2 0.00 0.00 0.00 36 1004.4
20260507174645 64 237 6.1 13.0 0.00 0.00 0.00 39 1004.4
20260507173136 63 262 2.6 11.3 0.00 0.00 0.00 46 1004.4
20260507171654 64 229 4.3 11.3 0.00 0.00 0.00 45 1004.4
20260507170151 63 267 5.2 14.8 0.00 0.00 0.00 49 1004.6
20260507164649 59 171 1.7 8.7 0.00 0.00 0.00 62 1004.9
20260507163141 60 132 3.5 6.1 0.00 0.00 0.00 60 1005.0
20260507161638 59 263 1.7 3.5 0.00 0.00 0.00 57 1005.2
20260507160156 62 110 2.6 7.8 0.00 0.00 0.00 51 1005.4
20260507154710 62 230 7.0 10.4 0.00 0.00 0.00 51 1005.4
20260507153152 61 264 2.6 13.0 0.00 0.00 0.00 51 1005.5
20260507151648 61 301 4.3 11.3 0.00 0.00 0.00 48 1005.6
20260507150207 61 169 2.6 9.6 0.00 0.00 0.00 50 1005.9
20260507144644 60 261 3.5 5.2 0.00 0.00 0.00 51 1006.0
20260507143136 60 246 4.3 10.4 0.00 0.00 0.00 52 1006.0
20260507141652 59 275 3.5 8.7 0.00 0.00 0.00 55 1006.0
20260507140149 59 250 2.6 6.1 0.00 0.00 0.00 60 1006.0
20260507134645 57 339 1.7 10.4 0.00 0.00 0.00 60 1006.0
20260507133144 56 115 2.6 5.2 0.00 0.00 0.00 66 1006.1
20260507131636 55 24 0.9 5.2 0.00 0.00 0.00 72 1006.3
20260507130153 54 281 1.7 7.8 0.00 0.00 0.00 77 1006.4
20260507124651 52 261 0.9 10.4 0.00 0.00 0.00 81 1006.6
20260507123148 51 5 1.7 8.7 0.00 0.00 0.00 85 1006.3
20260507121646 51 298 1.7 5.2 0.00 0.00 0.00 87 1006.3
20260507120140 50 290 1.7 2.6 0.00 0.00 0.00 89 1006.4
20260507114634 50 229 0.9 2.6 0.00 0.00 0.00 90 1006.4
20260507113214 50 318 0.9 2.6 0.00 0.00 0.00 90 1006.0
20260507111711 50 315 0.9 3.5 0.00 0.00 0.00 90 1006.0
20260507110148 50 287 0.0 2.6 0.00 0.00 0.00 90 1006.0
20260507104647 50 227 0.0 1.7 0.00 0.00 0.00 90 1006.4
20260507103145 50 269 0.9 2.6 0.00 0.00 0.00 90 1005.9
20260507101642 50 283 0.0 6.1 0.00 0.00 0.00 90 1006.0
20260507100134 50 295 0.0 5.2 0.00 0.00 0.00 90 1005.6
20260507094652 51 250 0.0 7.8 0.00 0.00 0.00 89 1005.7
20260507093152 51 344 2.6 7.8 0.00 0.00 0.00 89 1005.4
20260507091650 52 313 0.9 8.7 0.00 0.00 0.00 88 1005.6
20260507090147 53 310 1.7 6.1 0.00 0.00 0.00 88 1005.6
20260507084645 53 191 0.9 3.5 0.00 0.00 0.00 88 1005.4
20260507083142 54 262 0.9 3.5 0.00 0.00 0.00 86 1005.4
20260507081641 54 309 1.7 8.7 0.00 0.00 0.00 84 1005.7
20260507080133 54 271 1.7 10.4 0.00 0.00 0.00 83 1005.0
20260507074712 55 292 0.9 7.0 0.00 0.00 0.00 82 1005.2
20260507073148 55 348 0.9 7.8 0.00 0.00 0.00 83 1004.6
20260507071639 55 291 1.7 4.3 0.00 0.00 0.00 84 1004.7
20260507070134 56 231 1.7 6.1 0.00 0.00 0.00 83 1004.7
20260507064651 56 227 0.9 7.8 0.00 0.00 0.00 81 1004.7
20260507063151 56 252 2.6 10.4 0.00 0.00 0.00 83 1004.5
20260507061648 57 303 1.7 5.2 0.00 0.00 0.00 88 1004.4
20260507060146 58 332 0.0 6.1 0.00 0.00 0.00 88 1004.6
20260507054640 58 273 5.2 8.7 0.00 0.00 0.00 88 1004.9
20260507053134 58 261 1.7 5.2 0.00 0.00 0.00 89 1004.5
20260507051652 59 319 0.9 8.7 0.00 0.00 0.00 90 1004.8
20260507050150 60 291 4.3 13.9 0.00 0.00 0.00 93 1004.5
20260507044705 60 282 0.9 6.1 0.00 0.00 0.00 94 1004.3
20260507043140 60 263 2.6 4.3 0.00 0.00 0.00 95 1004.3
20260507041634 60 234 2.6 5.2 0.00 0.00 0.00 95 1004.6
20260507040152 60 247 6.1 9.6 0.00 0.00 0.00 95 1004.8
20260507034706 58 231 5.2 8.7 0.00 0.00 0.00 95 1004.4
20260507033137 57 219 3.5 7.0 0.00 0.00 0.00 94 1004.4
20260507031652 56 228 3.5 7.0 0.00 0.00 0.00 94 1004.2
20260507030151 57 163 2.6 7.8 0.00 0.00 0.00 94 1004.0
20260507024648 56 216 4.3 8.7 0.00 0.00 0.00 94 1004.3
20260507023147 57 210 3.5 8.7 0.00 0.00 0.00 94 1004.3
20260507021645 57 209 3.5 8.7 0.00 0.00 0.00 94 1004.2
20260507020146 57 176 2.6 7.0 0.00 0.00 0.00 94 1004.3
20260507014639 57 263 2.6 2.6 0.00 0.00 0.00 94 1004.4
20260507013132 0 0.0 0.0 0.00 0.00 0.00 -0.1
20260507011709 0 0.0 0.0 0.00 0.00 0.00 -0.1
20260507010144 0 0.0 0.0 0.00 0.00 0.00 -0.1
20260507004637 0 0.0 0.0 0.00 0.00 0.00 -0.1
20260507003154 0 0.0 0.0 0.00 0.00 0.00 -0.1
20260507001649 0 0.0 0.0 0.00 0.00 0.00 -0.1
20260507000147 0 0.0 0.0 0.00 0.00 0.00 -0.1
20260506234648 0 0.0 0.0 0.00 0.00 0.00 -0.1
20260506233144 0 0.0 0.0 0.00 0.00 0.00 -0.1
20260506231640 0 0.0 0.0 0.00 0.00 0.00 -0.1
20260506230133 0 0.0 0.0 0.00 0.00 0.00 -0.1
20260506224651 0 0.0 0.0 0.00 0.00 0.00 -0.1
20260506223147 0 0.0 0.0 0.00 0.00 0.00 -0.1
20260506221644 0 0.0 0.0 0.00 0.00 0.00 -0.1
20260506220140 0 0.0 0.0 0.00 0.00 0.00 -0.1
20260506214633 0 0.0 0.0 0.00 0.00 0.00 -0.1
20260506213149 0 0.0 0.0 0.00 0.00 0.00 -0.1